GW5507 Weather Reports


time (UTC)temp
C
wind
direction
speed
KPH
gust
KPH
rain 1hr
cm
rain 24hr
cm
rain mn
cm
humidity
%
barometer
mb
20260508013148 7 254 0.0 0.0 0.00 0.00 0.00 72 1012.3
20260508012646 8 254 0.0 0.0 0.00 0.00 0.00 70 1012.1
20260508012143 8 254 0.0 0.0 0.00 0.00 0.00 69 1012.0
20260508011641 8 252 0.0 0.0 0.00 0.00 0.00 67 1011.9
20260508011138 9 256 0.0 0.0 0.00 0.00 0.00 66 1012.0
20260508010635 9 256 0.0 0.0 0.00 0.00 0.00 64 1012.1
20260508010133 10 256 0.0 0.0 0.00 0.00 0.00 63 1011.9
20260508005630 10 256 0.0 0.0 0.00 0.00 0.00 62 1011.9
20260508005126 10 256 0.0 0.0 0.00 0.00 0.00 62 1011.8
20260508004622 10 252 0.0 1.6 0.00 0.00 0.00 61 1011.6
20260508004119 10 258 0.0 1.6 0.00 0.00 0.00 61 1011.6
20260508003615 11 256 0.0 0.0 0.00 0.00 0.00 60 1011.6
20260508003113 11 250 1.6 1.6 0.00 0.00 0.00 60 1011.6
20260508002609 11 246 0.0 1.6 0.00 0.00 0.00 60 1011.7
20260508002107 11 265 1.6 3.2 0.00 0.00 0.00 59 1011.3
20260508001602 11 298 3.2 4.8 0.00 0.00 0.00 57 1011.3
20260508001058 12 47 6.4 9.7 0.00 0.00 0.00 56 1011.2
20260508000554 12 265 4.8 4.8 0.00 0.00 0.00 58 1011.5
20260508000052 12 276 0.0 3.2 0.00 0.00 0.00 57 1011.1
20260507235548 12 101 1.6 3.2 0.00 0.00 0.00 57 1011.2
20260507235046 12 261 1.6 1.6 0.00 0.00 0.00 57 1010.9
20260507234542 12 349 6.4 9.7 0.00 0.00 0.00 54 1010.8
20260507234039 12 3 6.4 9.7 0.00 0.00 0.00 54 1010.9
20260507233536 12 354 4.8 8.0 0.00 0.00 0.00 55 1010.7
20260507233034 12 259 1.6 1.6 0.00 0.00 0.00 54 1010.9
20260507232530 13 303 3.2 3.2 0.00 0.00 0.00 53 1010.8
20260507232028 13 305 3.2 4.8 0.00 0.00 0.00 51 1010.8
20260507231524 13 279 4.8 4.8 0.00 0.00 0.00 49 1010.6
20260507231022 13 260 1.6 1.6 0.00 0.00 0.00 50 1010.6
20260507230518 13 260 1.6 1.6 0.00 0.00 0.00 47 1010.7
20260507230015 13 240 0.0 1.6 0.00 0.00 0.00 47 1010.6
20260507225510 14 74 3.2 4.8 0.00 0.00 0.00 47 1010.5
20260507225007 14 301 6.4 8.0 0.00 0.00 0.00 45 1010.3
20260507224502 13 275 3.2 4.8 0.00 0.00 0.00 47 1010.5
20260507223959 13 257 1.6 1.6 0.00 0.00 0.00 47 1010.2
20260507223454 14 262 4.8 4.8 0.00 0.00 0.00 45 1010.2
20260507222952 15 85 3.2 4.8 0.00 0.00 0.00 46 1010.2
20260507222449 15 265 3.2 3.2 0.00 0.00 0.00 46 1010.2
20260507221945 15 205 4.8 9.7 0.00 0.00 0.00 46 1010.0
20260507221442 14 249 1.6 1.6 0.00 0.00 0.00 45 1010.1
20260507220938 15 256 6.4 9.7 0.00 0.00 0.00 45 1010.2
20260507220436 15 310 3.2 3.2 0.00 0.00 0.00 45 1010.0
20260507215933 15 271 6.4 8.0 0.00 0.00 0.00 43 1009.9
20260507215429 15 328 8.0 12.9 0.00 0.00 0.00 43 1009.7
20260507214926 15 269 4.8 8.0 0.00 0.00 0.00 43 1009.7
20260507214424 15 181 4.8 8.0 0.00 0.00 0.00 45 1009.7
20260507213919 15 203 1.6 1.6 0.00 0.00 0.00 44 1009.6
20260507213416 16 206 6.4 12.9 0.00 0.00 0.00 43 1009.5
20260507212913 16 268 3.2 3.2 0.00 0.00 0.00 44 1009.5
20260507212409 16 282 3.2 3.2 0.00 0.00 0.00 44 1009.5
20260507211906 15 260 1.6 1.6 0.00 0.00 0.00 45 1009.6
20260507211402 16 273 3.2 3.2 0.00 0.00 0.00 41 1009.4
20260507210859 17 259 1.6 3.2 0.00 0.00 0.00 43 1009.3
20260507210356 17 17 3.2 3.2 0.00 0.00 0.00 43 1009.4
20260507205853 15 275 1.6 3.2 0.00 0.00 0.00 47 1009.4
20260507205349 16 265 3.2 3.2 0.00 0.00 0.00 43 1009.3
20260507204846 16 16 4.8 9.7 0.00 0.00 0.00 42 1009.4
20260507204343 16 252 1.6 3.2 0.00 0.00 0.00 44 1009.6
20260507203841 16 291 3.2 3.2 0.00 0.00 0.00 43 1009.7
20260507203339 15 325 1.6 3.2 0.00 0.00 0.00 46 1009.7
20260507202834 16 255 3.2 4.8 0.00 0.00 0.00 46 1009.6
20260507202331 16 274 4.8 4.8 0.00 0.00 0.00 41 1009.2
20260507201827 16 91 1.6 3.2 0.00 0.00 0.00 43 1009.5
20260507201322 17 223 4.8 4.8 0.00 0.00 0.00 42 1009.5
20260507200819 16 256 3.2 4.8 0.00 0.00 0.00 45 1009.6
20260507200315 16 235 1.6 1.6 0.00 0.00 0.00 42 1009.6
20260507195811 16 253 1.6 1.6 0.00 0.00 0.00 45 1009.7
20260507195309 16 286 1.6 3.2 0.00 0.00 0.00 43 1009.6
20260507194806 16 233 0.0 0.0 0.00 0.00 0.00 46 1009.9
20260507194302 15 302 3.2 3.2 0.00 0.00 0.00 45 1010.0
20260507193758 16 301 4.8 4.8 0.00 0.00 0.00 43 1009.9
20260507193255 17 268 1.6 1.6 0.00 0.00 0.00 39 1009.8
20260507192751 16 270 3.2 3.2 0.00 0.00 0.00 44 1010.0
20260507192248 16 243 3.2 3.2 0.00 0.00 0.00 44 1009.7
20260507191744 16 300 1.6 3.2 0.00 0.00 0.00 45 1009.8
20260507191241 17 262 4.8 4.8 0.00 0.00 0.00 42 1009.6
20260507190738 17 260 6.4 9.7 0.00 0.00 0.00 43 1009.8
20260507190237 18 294 4.8 8.0 0.00 0.00 0.00 40 1009.8
20260507185735 18 38 4.8 9.7 0.00 0.00 0.00 42 1009.9
20260507185231 18 233 4.8 8.0 0.00 0.00 0.00 39 1009.9
20260507184729 17 297 6.4 8.0 0.00 0.00 0.00 43 1009.9
20260507184227 17 263 3.2 3.2 0.00 0.00 0.00 48 1010.2
20260507183723 16 260 3.2 4.8 0.00 0.00 0.00 43 1009.9
20260507183214 16 264 1.6 1.6 0.00 0.00 0.00 46 1009.9
20260507182712 17 256 3.2 3.2 0.00 0.00 0.00 43 1010.2
20260507182206 16 267 3.2 3.2 0.00 0.00 0.00 47 1010.2
20260507181703 16 119 4.8 8.0 0.00 0.00 0.00 44 1010.2
20260507181200 15 225 1.6 1.6 0.00 0.00 0.00 46 1010.1
20260507180656 16 268 4.8 4.8 0.00 0.00 0.00 42 1010.4
20260507180154 15 314 4.8 8.0 0.00 0.00 0.00 52 1010.5
20260507175649 15 254 3.2 3.2 0.00 0.00 0.00 49 1010.3
20260507175147 15 279 1.6 3.2 0.00 0.00 0.00 47 1010.3
20260507174644 16 256 1.6 1.6 0.00 0.00 0.00 45 1010.4
20260507174142 16 268 3.2 3.2 0.00 0.00 0.00 45 1010.4
20260507173638 16 251 1.6 1.6 0.00 0.00 0.00 48 1010.7
20260507173135 15 298 6.4 8.0 0.00 0.00 0.00 49 1010.5
20260507172632 15 231 3.2 9.7 0.00 0.00 0.00 48 1010.4
20260507172130 15 257 1.6 3.2 0.00 0.00 0.00 49 1010.6
20260507171629 15 256 1.6 3.2 0.00 0.00 0.00 45 1010.6
20260507171127 15 299 3.2 3.2 0.00 0.00 0.00 50 1011.0
20260507170624 15 317 6.4 11.3 0.00 0.00 0.00 49 1010.6
20260507170121 14 259 0.0 0.0 0.00 0.00 0.00 51 1010.9
20260507165616 15 294 4.8 8.0 0.00 0.00 0.00 51 1010.8
20260507165113 15 260 3.2 4.8 0.00 0.00 0.00 48 1010.8
20260507164609 16 256 1.6 1.6 0.00 0.00 0.00 49 1010.9
20260507164106 16 244 1.6 1.6 0.00 0.00 0.00 48 1011.0
20260507163604 15 277 1.6 1.6 0.00 0.00 0.00 50 1011.0
20260507163102 15 262 1.6 1.6 0.00 0.00 0.00 50 1011.1
20260507162601 13 272 3.2 4.8 0.00 0.00 0.00 52 1010.8
20260507162059 15 246 4.8 8.0 0.00 0.00 0.00 50 1010.9
20260507161555 15 268 1.6 1.6 0.00 0.00 0.00 51 1011.0
20260507161052 15 251 1.6 4.8 0.00 0.00 0.00 53 1011.0
20260507160548 13 283 1.6 1.6 0.00 0.00 0.00 56 1011.2
20260507160044 13 258 0.0 1.6 0.00 0.00 0.00 54 1011.2
20260507155539 13 203 1.6 1.6 0.00 0.00 0.00 57 1011.3
20260507155037 13 254 0.0 0.0 0.00 0.00 0.00 58 1011.5
20260507154534 13 257 1.6 3.2 0.00 0.00 0.00 57 1011.3
20260507154031 13 338 3.2 3.2 0.00 0.00 0.00 56 1011.3
20260507153528 13 261 1.6 3.2 0.00 0.00 0.00 56 1011.5
20260507153024 13 257 1.6 1.6 0.00 0.00 0.00 55 1011.3
20260507152520 14 258 1.6 3.2 0.00 0.00 0.00 57 1011.7
20260507152016 13 77 1.6 3.2 0.00 0.00 0.00 56 1011.7
20260507151513 13 342 4.8 4.8 0.00 0.00 0.00 57 1011.5
20260507151010 14 260 0.0 1.6 0.00 0.00 0.00 54 1011.6
20260507150506 14 251 1.6 3.2 0.00 0.00 0.00 53 1011.5
20260507150003 14 244 3.2 3.2 0.00 0.00 0.00 53 1011.9
20260507145458 13 250 1.6 1.6 0.00 0.00 0.00 59 1011.9
20260507144956 13 264 1.6 3.2 0.00 0.00 0.00 58 1011.8
20260507144452 13 262 0.0 1.6 0.00 0.00 0.00 57 1012.1
20260507143949 14 246 1.6 1.6 0.00 0.00 0.00 54 1011.8
20260507143447 13 213 6.4 8.0 0.00 0.00 0.00 53 1012.0
20260507142943 14 293 1.6 3.2 0.00 0.00 0.00 57 1012.0
20260507142439 15 245 4.8 8.0 0.00 0.00 0.00 53 1012.1
20260507141937 15 289 1.6 3.2 0.00 0.00 0.00 56 1012.3
20260507141432 14 229 3.2 3.2 0.00 0.00 0.00 55 1012.4
20260507140930 13 246 0.0 1.6 0.00 0.00 0.00 60 1012.3
20260507140426 13 258 3.2 3.2 0.00 0.00 0.00 59 1012.6
20260507135924 13 255 1.6 3.2 0.00 0.00 0.00 60 1012.3
20260507135420 13 258 0.0 1.6 0.00 0.00 0.00 61 1012.4
20260507134918 13 284 0.0 0.0 0.00 0.00 0.00 61 1012.5
20260507134414 12 259 4.8 4.8 0.00 0.00 0.00 64 1012.6
20260507133910 12 273 0.0 0.0 0.00 0.00 0.00 65 1012.4
20260507133406 12 231 4.8 4.8 0.00 0.00 0.00 65 1012.9
20260507132905 11 260 0.0 1.6 0.00 0.00 0.00 71 1012.9
20260507132401 11 269 1.6 3.2 0.00 0.00 0.00 71 1012.7
20260507131858 11 270 1.6 1.6 0.00 0.00 0.00 74 1012.5
20260507131355 10 248 0.0 0.0 0.00 0.00 0.00 76 1012.7
20260507130852 10 260 0.0 1.6 0.00 0.00 0.00 82 1013.0
20260507130348 9 266 3.2 3.2 0.00 0.00 0.00 81 1013.0
20260507125848 9 276 3.2 3.2 0.00 0.00 0.00 83 1012.9
20260507125344 8 249 0.0 0.0 0.00 0.00 0.00 87 1012.9
20260507124842 7 254 0.0 0.0 0.00 0.00 0.00 91 1013.0
20260507124338 6 262 0.0 0.0 0.00 0.00 0.00 92 1013.1
20260507123837 6 252 0.0 0.0 0.00 0.00 0.00 94 1013.0
20260507123333 6 260 0.0 0.0 0.00 0.00 0.00 95 1012.6
20260507122830 6 253 0.0 0.0 0.00 0.00 0.00 97 1012.9
20260507122325 6 254 0.0 0.0 0.00 0.00 0.00 99 1013.0
20260507121823 6 253 0.0 0.0 0.00 0.00 0.00 99 1012.9
20260507121317 6 254 0.0 0.0 0.00 0.00 0.00 99 1013.0
20260507120814 5 250 0.0 0.0 0.00 0.00 0.00 99 1013.0
20260507120310 5 253 0.0 0.0 0.00 0.00 0.00 99 1013.0
20260507115807 4 248 1.6 1.6 0.00 0.00 0.00 99 1013.0
20260507115306 3 253 0.0 0.0 0.00 0.00 0.00 99 1013.0
20260507114758 4 253 0.0 0.0 0.00 0.00 0.00 99 1013.0
20260507114256 3 250 0.0 0.0 0.00 0.00 0.00 99 1013.1
20260507113753 3 253 0.0 0.0 0.00 0.00 0.00 99 1013.1
20260507113249 3 255 0.0 0.0 0.00 0.00 0.00 99 1013.1
20260507112748 2 255 0.0 0.0 0.00 0.00 0.00 99 1012.9
20260507112244 2 253 0.0 0.0 0.00 0.00 0.00 99 1012.9
20260507111742 2 250 0.0 1.6 0.00 0.00 0.00 99 1012.9
20260507111238 2 254 0.0 0.0 0.00 0.00 0.00 99 1012.9
20260507110734 2 254 0.0 0.0 0.00 0.00 0.00 99 1013.0
20260507110231 2 254 0.0 0.0 0.00 0.00 0.00 99 1012.6
20260507105728 2 253 0.0 0.0 0.00 0.00 0.00 99 1012.6
20260507105224 2 252 0.0 0.0 0.00 0.00 0.00 99 1012.7
20260507104722 2 254 0.0 0.0 0.00 0.00 0.00 99 1012.6
20260507104218 2 254 0.0 0.0 0.00 0.00 0.00 99 1012.6
20260507103714 2 254 0.0 0.0 0.00 0.00 0.00 99 1012.5
20260507103210 2 254 0.0 0.0 0.00 0.00 0.00 99 1012.6
20260507102707 2 254 0.0 0.0 0.00 0.00 0.00 99 1012.5
20260507102204 2 254 0.0 0.0 0.00 0.00 0.00 99 1012.5
20260507101700 2 255 0.0 0.0 0.00 0.00 0.00 99 1012.4
20260507101155 2 255 0.0 0.0 0.00 0.00 0.00 99 1012.5
20260507100653 1 255 0.0 0.0 0.00 0.00 0.00 99 1012.4
20260507100151 1 255 0.0 0.0 0.00 0.00 0.00 99 1012.1
20260507095649 1 254 0.0 0.0 0.00 0.00 0.00 99 1012.3
20260507095145 1 255 0.0 0.0 0.00 0.00 0.00 99 1012.3
20260507094641 1 255 0.0 0.0 0.00 0.00 0.00 99 1012.3
20260507094138 1 255 0.0 0.0 0.00 0.00 0.00 99 1012.4
20260507093636 1 255 0.0 0.0 0.00 0.00 0.00 99 1012.3
20260507093134 1 255 0.0 0.0 0.00 0.00 0.00 99 1012.3
20260507092630 1 255 0.0 0.0 0.00 0.00 0.00 99 1012.2
20260507092127 1 255 0.0 0.0 0.00 0.00 0.00 99 1012.3
20260507091624 1 255 0.0 0.0 0.00 0.00 0.00 99 1012.6
20260507091119 1 255 0.0 0.0 0.00 0.00 0.00 99 1012.2
20260507090616 1 255 0.0 0.0 0.00 0.00 0.00 99 1012.4
20260507090113 1 255 0.0 0.0 0.00 0.00 0.00 99 1012.3
20260507085610 1 255 0.0 0.0 0.00 0.00 0.00 99 1012.4
20260507085106 1 255 0.0 0.0 0.00 0.00 0.00 99 1012.5
20260507084603 1 255 0.0 0.0 0.00 0.00 0.00 99 1012.5
20260507084100 2 255 0.0 0.0 0.00 0.00 0.00 99 1012.5
20260507083556 2 255 0.0 0.0 0.00 0.00 0.00 99 1012.5
20260507083054 2 255 0.0 0.0 0.00 0.00 0.00 99 1012.3
20260507082549 2 255 0.0 0.0 0.00 0.00 0.00 99 1012.4
20260507082046 2 255 0.0 0.0 0.00 0.00 0.00 99 1012.6
20260507081542 2 256 0.0 0.0 0.00 0.00 0.00 99 1012.5
20260507081040 2 256 0.0 0.0 0.00 0.00 0.00 99 1012.5
20260507080535 2 256 0.0 0.0 0.00 0.00 0.00 98 1012.6
20260507080032 2 256 0.0 0.0 0.00 0.00 0.00 98 1012.4
20260507075527 2 256 0.0 0.0 0.00 0.00 0.00 98 1012.5
20260507075024 2 256 0.0 0.0 0.00 0.00 0.00 98 1012.7
20260507074521 2 256 0.0 0.0 0.00 0.00 0.00 98 1012.5
20260507074020 2 256 0.0 0.0 0.00 0.00 0.00 98 1012.9
20260507073515 3 256 0.0 0.0 0.00 0.00 0.00 98 1012.6
20260507073012 3 256 0.0 0.0 0.00 0.00 0.00 98 1012.7
20260507072509 3 256 0.0 0.0 0.00 0.00 0.00 97 1012.7
20260507072006 3 256 0.0 0.0 0.00 0.00 0.00 97 1012.7
20260507071504 3 256 0.0 0.0 0.00 0.00 0.00 97 1012.9
20260507071000 3 256 0.0 0.0 0.00 0.00 0.00 97 1012.9
20260507070457 3 256 0.0 0.0 0.00 0.00 0.00 97 1012.7
20260507065954 4 256 0.0 0.0 0.00 0.00 0.00 97 1012.7
20260507065451 4 256 0.0 0.0 0.00 0.00 0.00 96 1013.0
20260507064948 4 256 0.0 0.0 0.00 0.00 0.00 96 1012.7
20260507064446 4 256 0.0 0.0 0.00 0.00 0.00 95 1013.0
20260507063943 4 257 0.0 0.0 0.00 0.00 0.00 95 1012.6
20260507063440 5 257 0.0 0.0 0.00 0.00 0.00 94 1012.9
20260507062937 5 257 0.0 0.0 0.00 0.00 0.00 93 1013.1
20260507062434 5 257 0.0 0.0 0.00 0.00 0.00 92 1013.1
20260507061931 5 257 0.0 0.0 0.00 0.00 0.00 92 1012.9
20260507061429 5 257 0.0 0.0 0.00 0.00 0.00 91 1013.2
20260507060928 5 257 0.0 0.0 0.00 0.00 0.00 91 1013.1
20260507060424 5 257 0.0 0.0 0.00 0.00 0.00 90 1013.4
20260507055921 5 257 0.0 0.0 0.00 0.00 0.00 90 1013.2
20260507055416 6 258 0.0 0.0 0.00 0.00 0.00 89 1013.2
20260507054913 6 258 0.0 0.0 0.00 0.00 0.00 88 1013.1
20260507054409 6 258 0.0 0.0 0.00 0.00 0.00 87 1013.1
20260507053907 6 258 0.0 0.0 0.00 0.00 0.00 86 1013.2
20260507053404 6 258 0.0 0.0 0.00 0.00 0.00 85 1013.0
20260507052903 7 258 0.0 0.0 0.00 0.00 0.00 85 1013.5
20260507052400 7 258 0.0 0.0 0.00 0.00 0.00 85 1013.3
20260507051857 7 258 0.0 0.0 0.00 0.00 0.00 84 1013.3
20260507051354 7 258 0.0 0.0 0.00 0.00 0.00 82 1013.4
20260507050851 7 258 0.0 0.0 0.00 0.00 0.00 81 1013.3
20260507050348 7 258 0.0 0.0 0.00 0.00 0.00 82 1013.5
20260507045845 7 259 0.0 0.0 0.00 0.00 0.00 82 1013.6
20260507045341 7 259 0.0 0.0 0.00 0.00 0.00 81 1013.5
20260507044838 7 259 0.0 0.0 0.00 0.00 0.00 80 1013.6
20260507044335 7 259 0.0 0.0 0.00 0.00 0.00 79 1013.5
20260507043830 7 259 0.0 0.0 0.00 0.00 0.00 79 1013.7
20260507043327 7 260 0.0 0.0 0.00 0.00 0.00 79 1013.4
20260507042824 7 262 0.0 0.0 0.00 0.00 0.00 81 1013.7
20260507042319 7 262 0.0 0.0 0.00 0.00 0.00 80 1013.6
20260507041817 8 262 0.0 0.0 0.00 0.00 0.00 79 1013.5
20260507041313 8 262 0.0 0.0 0.00 0.00 0.00 78 1013.5
20260507040810 8 262 0.0 0.0 0.00 0.00 0.00 77 1013.6
20260507040306 8 262 0.0 1.6 0.00 0.00 0.00 77 1013.6
20260507035802 8 262 0.0 0.0 0.00 1.27 1.27 79 1013.7
20260507035258 8 263 0.0 0.0 0.00 1.27 1.27 79 1013.9
20260507034755 8 263 0.0 0.0 0.00 1.27 1.27 77 1013.6
20260507034252 8 264 0.0 0.0 0.00 1.27 1.27 77 1013.5
20260507033751 8 263 0.0 0.0 0.00 1.27 1.27 79 1013.5
20260507033248 8 263 0.0 0.0 0.00 1.27 1.27 78 1013.3
20260507032745 8 264 0.0 0.0 0.00 1.27 1.27 77 1013.3
20260507032241 8 266 1.6 1.6 0.00 1.27 1.27 78 1013.5
20260507031737 8 261 0.0 0.0 0.00 1.27 1.27 79 1013.3
20260507031235 8 261 0.0 0.0 0.00 1.27 1.27 78 1013.3
20260507030731 8 261 0.0 0.0 0.00 1.27 1.27 78 1013.3
20260507030229 8 262 0.0 0.0 0.00 1.27 1.27 80 1013.4
20260507025726 8 262 0.0 0.0 0.00 1.27 1.27 78 1013.4
20260507025223 8 262 0.0 0.0 0.00 1.27 1.27 79 1013.4
20260507024721 8 262 0.0 0.0 0.00 1.27 1.27 79 1013.4
20260507024218 8 262 0.0 0.0 0.00 1.27 1.27 78 1013.2
20260507023713 8 263 0.0 0.0 0.00 1.27 1.27 77 1013.3
20260507023211 8 262 0.0 0.0 0.00 1.27 1.27 80 1013.1
20260507022708 8 262 0.0 0.0 0.00 1.27 1.27 79 1013.2
20260507022204 8 262 0.0 0.0 0.00 1.27 1.27 78 1013.0
20260507021700 8 262 0.0 0.0 0.00 1.27 1.27 77 1012.7
20260507021155 8 262 0.0 0.0 0.00 1.27 1.27 77 1012.9
20260507020654 8 262 0.0 0.0 0.00 1.27 1.27 75 1012.7
20260507020149 8 262 0.0 0.0 0.00 1.27 1.27 76 1012.7
20260507015648 8 262 0.0 0.0 0.00 1.27 1.27 75 1012.7
20260507015145 8 263 0.0 0.0 0.00 1.27 1.27 72 1012.6
20260507014641 8 268 1.6 1.6 0.00 1.27 1.27 71 1012.3
20260507014138 9 263 0.0 0.0 0.00 1.27 1.27 71 1012.5
20260507013635 9 268 1.6 1.6 0.00 1.27 1.27 71 1012.5